Regional Weather Roundup
Issued by NWS Sterling, VA

Home | Current Version | Previous Version | Text Only | Print | Product List | Glossary On
Versions: 1 2 3 4 5 6 7 8 9 10 11 12 13 14 15 16 17 18 19 20 21 22 23 24 25 26 27 28 29 30 31 32 33 34 35 36 37 38 39 40 41 42 43 44 45 46 47 48 49 50
000
ASUS41 KLWX 301410
RWRLWX

REGIONAL WEATHER ROUNDUP
NATIONAL WEATHER SERVICE BALTIMORE MD/WASHINGTON DC
900 AM EST FRI JAN 30 2015

Note: "FAIR" indicates few or no clouds below 12,000 feet
with no significant weather and/or obstructions to visibility.
 TC=TEMPERATURE CELSIUS

 * =Non NWS site. Station does not report precipitation (e.g. rain,
    snow, etc.), thunder, or fog.

DCZ001-MDZ009-015-VAZ040>042-051-053>054-301500-
WASHINGTON METRO

CITY           SKY/WX    TMP DP  RH WIND       PRES   REMARKS
WASHINGTON NAT PTSUNNY   41  23  48 NW9       30.02R
DULLES         PTSUNNY   36  24  62 NW10      30.01R WCI  28
ANDREWS AFB    PTSUNNY   37  23  58 NW17G25   29.98R WCI  27
FT BELVOIR     CLOUDY    39  23  53 NW10      30.02R
QUANTICO       PTSUNNY   41  23  48 N10       30.03S
COLLEGE PARK*  CLOUDY    37  27  65 NW9G21    29.99S
LEESBURG*      CLOUDY    37  30  75 NW9       30.02R
MANASSAS*      CLOUDY    37  27  65 NW9       30.02R
GAITHERSBURG*  PTSUNNY   34  23  64 NW10G16   30.03R WCI  26

$$

MDZ006>007-011-014-301500-
BALTIMORE METRO

CITY           SKY/WX    TMP DP  RH WIND       PRES   REMARKS
BWI AIRPORT    PTSUNNY   37  23  56 W15       29.98R WCI  28
MD SCIENCE CTR   N/A     38  23  55 MISG      29.98R
MARTIN STATE   MOSUNNY   39  27  60 W18       29.99R
ANNAPOLIS      MOSUNNY   38  24  57 NW12      29.98S
FORT MEADE*    MOSUNNY   36  25  64 NW10G16   30.01S WCI  28

$$

MDZ012-015-019>023-301500-
MARYLAND EASTERN SHORE

CITY           SKY/WX    TMP DP  RH WIND       PRES   REMARKS
OCEAN CITY     CLOUDY    39  28  64 N14       29.94R
SALISBURY      CLOUDY    41  28  60 NW17      29.95R
BAY BRIDGE AP*   N/A     37  25  60 NW13      29.98S
CAMBRIDGE*     MOSUNNY   41  28  60 NW15      29.97R

$$

MDZ017>025-301500-
SOUTHERN MARYLAND

CITY           SKY/WX    TMP DP  RH WIND       PRES   REMARKS
PATUXENT RIVER MOSUNNY   40  22  48 NW23G30   29.98R
ST INIGOES     MOSUNNY   41  20  43 NW15G25   29.98R
LEONARDTOWN*   PTSUNNY   39  21  48 NW7         N/A

$$

MDZ003>005-301500-
NORTH CENTRAL MARYLAND

CITY           SKY/WX    TMP DP  RH WIND       PRES   REMARKS
FREDERICK*     CLOUDY    37  25  60 W8        30.04R
HAGERSTOWN APT CLOUDY    35  23  61 NW20      29.99R WCI  24
WESTMINSTER*   CLOUDY    34  25  69 W8        29.96R WCI  27

$$

MDZ501>502-301500-
WESTERN MARYLAND

CITY           SKY/WX    TMP DP  RH WIND       PRES   REMARKS
OAKLAND*       CLOUDY    21 N/A N/A NW13G25   29.96R HAZE    WCI   9
CUMBERLAND*    MOSUNNY   32  23  69 NW12G24   30.08S WCI  23

$$

VAZ025>031-301500-
SHENANDOAH VALLEY

CITY           SKY/WX    TMP DP  RH WIND       PRES   REMARKS
WINCHESTER*    CLOUDY    36  23  60 N5G18     30.02R
FRONT ROYAL*   CLOUDY    36  23  60 NW9G20    30.01R WCI  29
LURAY*         CLOUDY    37  27  65 NW10G16   30.02R
NEW MARKET*    CLOUDY    35  25  68 CALM      30.01R
STAUNTON*      CLOUDY    36  22  57 NW14      30.04R WCI  27
WAYNESBORO*    CLOUDY    36  19  49 W10G20    30.00R WCI  28

$$

WVZ021-048>050-054>055-301500-
EASTERN WEST VIRGINIA PANHANDLE

CITY           SKY/WX    TMP DP  RH WIND       PRES   REMARKS
MARTINSBURG    SNOW      34  28  79 NW12      30.04R VSB 1/2 WCI  25
PETERSBURG*    CLOUDY    33  17  52 NW12G24   30.08R WCI  24

$$

VAZ036>039-050-301500-
CENTRAL FOOTHILLS

CITY           SKY/WX    TMP DP  RH WIND       PRES   REMARKS
CHARLOTTESVILL CLOUDY    40  22  48 NW6       30.01R
CULPEPER*      PTSUNNY   39  25  56 NW5       30.02S
ORANGE*        PTSUNNY   39  25  56 W5        30.03R
GORDONSVILLE*  CLOUDY    39  23  53 NW5       30.01R
WARRENTON*     PTSUNNY   39  29  67 NW6       30.01R

$$

VAZ055>057-301500-
NORTH AND CENTRAL PIEDMONT

CITY           SKY/WX    TMP DP  RH WIND       PRES   REMARKS
FREDERICKSBRG* CLOUDY    41  24  51 NW12G18   30.02R
STAFFORD*      PTSUNNY   39  23  53 NW10      30.05S

$$

NCZ024-NYZ072-PAZ021-071-VAZ022-071-301500-
OTHER REGIONAL OBSERVATIONS

CITY           SKY/WX    TMP DP  RH WIND       PRES   REMARKS
NEW YORK CITY  LGT SNOW  32  26  78 VRB7      29.89R
PHILADELPHIA   CLOUDY    36  25  64 NW13      29.94R WCI  27
PITTSBURGH     FLURRIES  22  15  75 NW23G29   30.15R WCI   6
ROANOKE        PTSUNNY   36  18  48 NW24G39   30.10R WCI  24
RICHMOND       PTSUNNY   43  27  53 N14       30.01R
RALEIGH        MOSUNNY   43  22  43 N10G28    30.06R

$$

ANZ530>537-301500-
MARINE OBSERVATIONS

STATION/POSITION TIME  TEMP    WIND        PRES
                       AIR SEA DIR/SP/G
                 (UTC) (F)     (DEG/KT/KT) (MB)
THOMAS PT LIGHT  1400   38 36  320/ 12/ 14 1016.2R
BALT KEY BRIDGE  1400   37     290/ 13/ 15 1015.0R
COVE POINT       1400   37     350/ 23/ 27 1015.0R
LEWISETTA        1400   39 36  340/ 15/ 22 1015.5R
SOLOMONS ISLAND  1400      37                N/A
PINEY POINT      1400          350/ 19/ 21   N/A

$$



USA.gov is the U.S. government's official web portal to all federal, state and local government web resources and services.